Flag for U.S.A. Weather past 2 weeks in New Orleans, Louisiana, U.S.A.

Now
54 °F

Clear.


Feels Like: 52 °F
Forecast: 48 / 67 °F
Wind: 8 mph from West

Location: Lakefront Airport

Current Time: Jan 26, 2015 at 10:10:53 PM

Latest Report: Jan 26, 2015 at 8:53 PM


Visibility: 10 mi

Pressure: 30.08 "Hg

Humidity: 74%

Dew point: 46 °F

Location of New OrleansLocation

Historic Weather in New Orleans — Graph

°F

New Orleans temperature yesterday

Maximum temperature yesterday: 67 °F (at 1:53 PM)
Minimum temperature yesterday: 46 °F (at 3:53 AM)
Average temperature yesterday: 56 °F

Past Weeks' High & Low Weather Summary

 TemperatureHumidityPressure
High68 °F (Jan 19, 3:53 PM)93% (Jan 12, 3:53 AM)30.34 "Hg (Jan 12, 3:53 AM)
Low42 °F (Jan 14, 9:53 AM)35% (Jan 25, 2:53 PM)29.84 "Hg (Jan 25, 4:53 PM)
Average53 °F73%30.12 "Hg
* Reported Jan 11 8:53 PM — Jan 26 8:53 PM, New Orleans, Weather by CustomWeather, © 2014

Note: Actual official high and low records may vary slightly from our data, if they occured in-between our weather recording intervals... More about our weather records

Advertising

New Orleans weather history for previous 24 hours

 ConditionsComfort  
Time TempWeatherWind HumidityBarometerVisibility
8:53 PM
Jan 26
54 °FClear.8 mph74%30.08 "Hg10 mi
7:53 PM55 °FClear.10 mph69%30.09 "Hg10 mi
6:53 PM54 °FClear.8 mph72%30.09 "Hg10 mi
5:53 PM55 °FClear.7 mph69%30.07 "Hg10 mi
4:53 PM56 °FSunny.8 mph67%30.06 "Hg10 mi
3:53 PM57 °FSunny.10 mph64%30.04 "Hg10 mi
2:53 PM57 °FSunny.10 mph62%30.04 "Hg10 mi
1:53 PM57 °FSunny.9 mph64%30.04 "Hg10 mi
12:53 PM57 °FSunny.8 mph55%30.06 "Hg10 mi
11:53 AM56 °FSunny.14 mph53%30.09 "Hg10 mi
10:53 AM55 °FSunny.17 mph53%30.12 "Hg10 mi
9:53 AM53 °FSunny.20 mph55%30.14 "Hg10 mi
8:53 AM52 °FSunny.21 mph57%30.13 "Hg10 mi
7:53 AM52 °FSunny.17 mph57%30.09 "Hg10 mi
6:53 AM51 °FSunny.16 mph59%30.08 "Hg10 mi
5:53 AM52 °FClear.18 mph57%30.04 "Hg10 mi
4:53 AM53 °FClear.17 mph56%30.03 "Hg10 mi
3:53 AM53 °FClear.15 mph59%30.01 "Hg10 mi
2:53 AM55 °FClear.16 mph55%30.01 "Hg10 mi
1:53 AM55 °FClear.18 mph59%30.01 "Hg10 mi
12:53 AM55 °FClear.14 mph64%29.98 "Hg10 mi
11:53 PM
Jan 25
56 °FClear.15 mph67%29.97 "Hg10 mi
10:53 PM56 °FClear.17 mph70%29.96 "Hg10 mi
Weather by CustomWeather, © 2014

See weather overviewHow to use our weather pages